Weather History for KMWL - October, 2012

Change the Weather History Date:

Sunday, October 7, 2012

  Actual Average Record
Temperature  
Mean Temperature 48 °F -  
Max Temperature 51 °F 78 °F 100 °F (2014)
Min Temperature 44 °F 56 °F 41 °F (2000)
Degree Days  
Heating Degree Days 16    
Moisture  
Dew Point 34 °F    
Average Humidity 60    
Maximum Humidity 73    
Minimum Humidity 48    
Precipitation  
Precipitation 0.00 in - - ()
Sea Level Pressure  
Sea Level Pressure 30.26 in    
Wind  
Wind Speed 8 mph (NNE)    
Max Wind Speed 12 mph    
Max Gust Speed -    
Visibility 10 miles    
Events      
Averages and records for this station are not official NWS values.
T = Trace of Precipitation, MM = Missing Value Source: NWS Daily Summary

Daily Weather History Graph

Daily Weather History Graph

Search for Another Location

Airport or City:

Trip Planner

Search our weather history database for the weather conditions in past years. The results will help you decide how hot, cold, wet, or windy it might be!

Date:

Astronomy

Oct. 07, 2012 Rise Set
Actual Time 7:30 AM CDT 7:08 PM CDT
Civil Twilight 7:06 AM CDT 7:33 PM CDT
Nautical Twilight 6:37 AM CDT 8:01 PM CDT
Astronomical Twilight 6:09 AM CDT 8:30 PM CDT
Moon No Moon Rise 1:56 PM CDT (10/7)
Length of Visible Light 12h 26m
Length of Day
11h 37m
Waning Gibbous, 56% of the Moon is Illuminated
Oct 7
Waning Gibbous
Oct 8
Last Quarter
Oct 15
New
Oct 21
First Quarter
Oct 29
Full

Hourly Weather History & Observations

Time (CDT) Temp. Windchill Dew Point Humidity Pressure Visibility Wind Dir Wind Speed Gust Speed Precip Events Conditions
12:53 AM 46.9 °F - 36.0 °F 66% 30.27 in 10.0 mi North 9.2 mph - N/A   Overcast
1:53 AM 48.0 °F - 36.0 °F 63% 30.25 in 10.0 mi NNE 11.5 mph - N/A   Overcast
2:53 AM 48.0 °F - 36.0 °F 63% 30.27 in 10.0 mi North 8.1 mph - N/A   Overcast
3:53 AM 48.0 °F - 36.0 °F 63% 30.26 in 10.0 mi NNE 6.9 mph - N/A   Overcast
4:53 AM 46.9 °F - 35.1 °F 63% 30.27 in 10.0 mi North 6.9 mph - N/A   Overcast
5:53 AM 46.9 °F - 35.1 °F 63% 30.28 in 10.0 mi North 11.5 mph - N/A   Overcast
6:53 AM 46.9 °F - 35.1 °F 63% 30.28 in 10.0 mi NNE 9.2 mph - N/A   Overcast
7:53 AM 46.0 °F 41.0 °F 34.0 °F 63% 30.29 in 10.0 mi NE 10.4 mph - N/A   Overcast
8:53 AM 46.9 °F - 34.0 °F 61% 30.29 in 10.0 mi NE 10.4 mph - N/A   Overcast
9:53 AM 46.9 °F - 34.0 °F 61% 30.32 in 10.0 mi NNE 8.1 mph - N/A   Overcast
10:53 AM 48.0 °F - 35.1 °F 61% 30.32 in 10.0 mi NNE 10.4 mph - N/A   Overcast
11:53 AM 48.0 °F - 34.0 °F 58% 30.30 in 10.0 mi North 6.9 mph - N/A   Overcast
12:53 PM 48.9 °F - 34.0 °F 56% 30.28 in 10.0 mi ENE 5.8 mph - N/A   Overcast
1:53 PM 50.0 °F - 34.0 °F 54% 30.26 in 10.0 mi North 9.2 mph - N/A   Overcast
2:53 PM 51.1 °F - 33.1 °F 50% 30.22 in 10.0 mi NNE 9.2 mph - N/A   Overcast
3:53 PM 48.9 °F - 30.0 °F 48% 30.22 in 10.0 mi NNE 9.2 mph - N/A   Overcast
4:53 PM 48.9 °F - 33.1 °F 54% 30.21 in 10.0 mi North 8.1 mph - 0.00 in   Overcast
5:53 PM 48.9 °F - 33.1 °F 54% 30.22 in 10.0 mi North 6.9 mph - N/A   Overcast
6:53 PM 48.2 °F - 33.8 °F 58% 30.23 in 10.0 mi North 4.6 mph - N/A   Overcast
7:53 PM 48.0 °F - 34.0 °F 58% 30.22 in 10.0 mi North 4.6 mph - N/A   Overcast
8:53 PM 48.0 °F - 33.1 °F 56% 30.23 in 10.0 mi Calm Calm - N/A   Overcast
9:53 PM 48.0 °F - 35.1 °F 61% 30.24 in 10.0 mi Calm Calm - N/A   Overcast
10:53 PM 48.0 °F - 36.0 °F 63% 30.24 in 10.0 mi Calm Calm - N/A   Overcast
11:53 PM 44.1 °F - 36.0 °F 73% 30.24 in 10.0 mi Calm Calm - N/A   Clear